Volver al catálogo

THOR ABLESTAR DEB

ActivoLEO
NORAD 123·DEBRIS·🇺🇸 United States

Lanzado Jun 29, 1961 desde Cape Canaveral Space Force Station

Loading…

Próximos Pases (próximas 24 horas)

TLE

ActualizadoSource: Space-Track

Época: Sep 9, 2026, 06:26 UTC

1 00123U 61015H   26252.26825548  .00000181  00000-0  78466-4 0  9991
2 00123  66.6856 203.5861 0112631 210.6541 148.7952 14.41779844391652

Sigue THOR ABLESTAR DEB en tiempo real con AllMySat

Download on the App Store